Weather History for KHUT - November, 2012

Change the Weather History Date:

Friday, November 2, 2012

  Actual Average Record
Temperature  
Mean Temperature 62 °F -  
Max Temperature 77 °F 58 °F 78 °F (2008)
Min Temperature 48 °F 36 °F 17 °F (2006)
Degree Days  
Heating Degree Days 2    
Growing Degree Days 12 (Base 50)    
Moisture  
Dew Point 39 °F    
Average Humidity 50    
Maximum Humidity 69    
Minimum Humidity 19    
Precipitation  
Precipitation 0.00 in - - ()
Sea Level Pressure  
Sea Level Pressure 29.83 in    
Wind  
Wind Speed 9 mph (East)    
Max Wind Speed 21 mph    
Max Gust Speed 29 mph    
Visibility 10 miles    
Events      
Averages and records for this station are not official NWS values.
T = Trace of Precipitation, MM = Missing Value Source: NWS Daily Summary

Daily Weather History Graph

Daily Weather History Graph

Search for Another Location

Airport or City:

Trip Planner

Search our weather history database for the weather conditions in past years. The results will help you decide how hot, cold, wet, or windy it might be!

Date:

Astronomy

Nov. 02, 2012 Rise Set
Actual Time 7:58 AM CDT 6:30 PM CDT
Civil Twilight 7:31 AM CDT 6:57 PM CDT
Nautical Twilight 7:00 AM CDT 7:29 PM CDT
Astronomical Twilight 6:29 AM CDT 7:59 PM CDT
Moon 9:20 PM CDT (11/2) 11:18 AM CDT (11/2)
Length of Visible Light 11h 26m
Length of Day
10h 31m
Waning Gibbous, 87% of the Moon is Illuminated
Nov 2
Waning Gibbous
Nov 6
Last Quarter
Nov 13
New
Nov 20
First Quarter
Nov 28
Full

Hourly Weather History & Observations

Time (CDT) Temp. Dew Point Humidity Pressure Visibility Wind Dir Wind Speed Gust Speed Precip Events Conditions
12:52 AM 55.0 °F 39.0 °F 55% 29.88 in 10.0 mi ESE 5.8 mph - N/A   Clear
1:52 AM 54.0 °F 39.0 °F 57% 29.86 in 10.0 mi ESE 5.8 mph - N/A   Clear
2:52 AM 52.0 °F 39.0 °F 61% 29.85 in 10.0 mi East 4.6 mph - N/A   Clear
3:52 AM 48.9 °F 39.0 °F 69% 29.85 in 10.0 mi East 6.9 mph - N/A   Clear
4:52 AM 48.9 °F 39.0 °F 69% 29.83 in 10.0 mi East 6.9 mph - N/A   Clear
5:52 AM 52.0 °F 39.9 °F 63% 29.83 in 10.0 mi ESE 10.4 mph - N/A   Clear
6:52 AM 51.1 °F 41.0 °F 68% 29.81 in 10.0 mi ESE 12.7 mph - N/A   Clear
7:52 AM 51.1 °F 41.0 °F 68% 29.81 in 10.0 mi SE 9.2 mph - N/A   Clear
8:52 AM 51.1 °F 41.0 °F 68% 29.82 in 10.0 mi SE 6.9 mph - N/A   Clear
9:52 AM 55.9 °F 43.0 °F 62% 29.82 in 10.0 mi SE 10.4 mph - N/A   Clear
10:52 AM 62.1 °F 44.1 °F 52% 29.81 in 10.0 mi SSE 11.5 mph - N/A   Clear
11:52 AM 68.0 °F 41.0 °F 37% 29.78 in 10.0 mi SSW 9.2 mph - N/A   Clear
12:52 PM 72.0 °F 39.0 °F 30% 29.77 in 10.0 mi SW 11.5 mph - N/A   Clear
1:52 PM 73.9 °F 35.1 °F 24% 29.76 in 10.0 mi WSW 11.5 mph - N/A   Clear
2:52 PM 77.0 °F 30.9 °F 19% 29.75 in 10.0 mi West 11.5 mph - N/A   Clear
3:52 PM 75.0 °F 32.0 °F 21% 29.77 in 10.0 mi WNW 12.7 mph - N/A   Clear
4:52 PM 71.1 °F 36.0 °F 28% 29.79 in 10.0 mi NW 13.8 mph - N/A   Clear
5:52 PM 69.1 °F 37.9 °F 32% 29.80 in 10.0 mi NNW 12.7 mph - N/A   Clear
6:52 PM 64.0 °F 43.0 °F 46% 29.84 in 10.0 mi NNW 13.8 mph - N/A   Clear
7:52 PM 60.1 °F 42.1 °F 51% 29.88 in 10.0 mi North 17.3 mph 27.6 mph N/A   Clear
8:52 PM 57.0 °F 41.0 °F 55% 29.92 in 10.0 mi North 17.3 mph 24.2 mph N/A   Clear
9:52 PM 53.1 °F 39.0 °F 59% 29.96 in 10.0 mi North 18.4 mph 26.5 mph N/A   Clear
10:52 PM 51.1 °F 37.0 °F 59% 29.98 in 10.0 mi North 20.7 mph 28.8 mph N/A   Clear